Flag for Norway Weather past 2 weeks in Randaberg, Norway

Now
54 °F

Sunny.


Feels Like: 50 °F
Forecast: 42 / 51 °F
Wind: 13 mph from Northwest

Location: Stavanger / Sola

Current Time: Apr 19, 2015 at 4:47:47 PM

Latest Report: Apr 19, 2015 at 4:20 PM


Visibility: 10 mi

Pressure: 30.39 "Hg

Humidity: 58%

Dew point: 39 °F

Location of RandabergLocation

Historic Weather in Randaberg — Graph

°F

Randaberg temperature yesterday

Maximum temperature yesterday: 50 °F (at 12:50 PM)
Minimum temperature yesterday: 34 °F (at 5:20 AM)
Average temperature yesterday: 44 °F

Past Weeks' High & Low Weather Summary

 TemperatureHumidityPressure
High59 °F (Apr 11, 1:50 PM)100% (Apr 5, 12:50 PM)30.51 "Hg (Apr 5, 12:50 PM)
Low34 °F (Apr 5, 1:50 AM)41% (Apr 19, 11:20 AM)29.59 "Hg (Apr 11, 3:20 PM)
Average44 °F82%30.12 "Hg
* Reported Apr 4 3:20 PM — Apr 19 3:20 PM, Randaberg, Weather by CustomWeather, © 2015

Note: Actual official high and low records may vary slightly from our data, if they occured in-between our weather recording intervals... More about our weather records

Advertising

Randaberg weather history for previous 24 hours

 ConditionsComfort  
Time TempWeatherWind HumidityBarometerVisibility
3:20 PM
Sun, Apr 19
57 °FSunny.13 mph41%30.39 "Hg10 mi
2:50 PM55 °FSunny.14 mph47%30.39 "Hg10 mi
2:20 PM57 °FSunny.12 mph44%30.39 "Hg10 mi
1:50 PM57 °FSunny.9 mph44%30.39 "Hg10 mi
1:20 PM55 °FSunny.8 mph44%30.39 "Hg10 mi
12:50 PM55 °FSunny.9 mph47%30.39 "Hg10 mi
12:20 PM55 °FSunny.9 mph44%30.39 "Hg10 mi
11:50 AM54 °FPassing clouds.7 mph44%30.39 "HgN/A
11:20 AM55 °FSunny.7 mph41%30.39 "Hg10 mi
10:50 AM54 °FSunny.9 mph44%30.39 "Hg10 mi
10:20 AM54 °FPassing clouds.6 mph54%30.39 "HgN/A
9:50 AM50 °FPassing clouds.5 mph62%30.39 "HgN/A
9:20 AM50 °FSunny.1 mph62%30.39 "Hg10 mi
8:50 AM46 °FSunny.1 mph71%30.39 "Hg10 mi
8:20 AM43 °FSunny.1 mph76%30.39 "Hg10 mi
7:50 AM43 °FSunny.1 mph76%30.39 "Hg10 mi
7:20 AM43 °FSunny.3 mph76%30.36 "Hg10 mi
6:50 AM43 °FClear.1 mph76%30.36 "Hg10 mi
6:20 AM39 °FClear.1 mph75%30.33 "Hg10 mi
5:50 AM39 °FClear.2 mph75%30.33 "Hg10 mi
4:50 AM41 °FClear.2 mph70%30.33 "Hg10 mi
3:50 AM41 °FClear.2 mph70%30.30 "Hg10 mi
2:50 AM45 °FClear.2 mph66%30.30 "Hg10 mi
1:50 AM45 °FClear.5 mph66%30.27 "Hg10 mi
12:50 AM46 °FClear.12 mph66%30.27 "Hg10 mi
12:20 AM46 °FClear.10 mph71%30.27 "Hg10 mi
11:50 PM
Sat, Apr 18
46 °FClear.9 mph66%30.24 "Hg10 mi
11:20 PM46 °FClear.8 mph71%30.24 "Hg10 mi
10:50 PM48 °FClear.14 mph66%30.24 "Hg10 mi
10:20 PM48 °FClear.13 mph66%30.24 "Hg10 mi
9:50 PM48 °FSunny.14 mph66%30.24 "Hg10 mi
9:20 PM50 °FSunny.15 mph62%30.24 "Hg10 mi
8:50 PM50 °FSunny.13 mph62%30.24 "Hg10 mi
8:20 PM48 °FSunny.17 mph76%30.24 "Hg10 mi
7:50 PM48 °FSunny.21 mph76%30.24 "Hg10 mi
7:20 PM50 °FPassing clouds.21 mph67%30.24 "HgN/A
6:50 PM50 °FPassing clouds.20 mph67%30.24 "HgN/A
6:20 PM48 °FPassing clouds.22 mph71%30.24 "HgN/A
5:50 PM48 °FPassing clouds.23 mph71%30.27 "HgN/A
5:20 PM50 °FPassing clouds.22 mph67%30.27 "HgN/A
4:50 PM50 °FPassing clouds.18 mph67%30.30 "HgN/A
4:20 PM50 °FPassing clouds.23 mph67%30.30 "HgN/A
Weather by CustomWeather, © 2015

See weather overviewHow to use our weather pages